| time (UTC) | temp C | wind direction | speed KPH | gust KPH | rain 1hr cm | rain 24hr cm | rain mn cm | humidity % | barometer mb |
| 20260509032407 | 7 | 28 | 0.0 | 0.0 | 0.00 | 0.00 | 0.00 | 59 | 1005.2 |
| 20260509031905 | 7 | 28 | 0.0 | 0.0 | 0.00 | 0.00 | 0.00 | 58 | 1005.1 |
| 20260509031402 | 7 | 28 | 0.0 | 0.0 | 0.00 | 0.00 | 0.00 | 56 | 1005.2 |
| 20260509030859 | 7 | 19 | 0.0 | 0.0 | 0.00 | 0.00 | 0.00 | 55 | 1005.5 |
| 20260509030358 | 7 | 15 | 0.0 | 0.0 | 0.00 | 0.00 | 0.00 | 55 | 1005.5 |
| 20260509025854 | 7 | 16 | 0.0 | 0.0 | 0.00 | 0.00 | 0.00 | 52 | 1005.5 |
| 20260509025349 | 7 | 23 | 0.0 | 0.0 | 0.00 | 0.00 | 0.00 | 52 | 1005.4 |
| 20260509024845 | 8 | 17 | 0.0 | 0.0 | 0.00 | 0.00 | 0.00 | 50 | 1005.6 |
| 20260509024341 | 8 | 29 | 0.0 | 0.0 | 0.00 | 0.00 | 0.00 | 49 | 1005.7 |
| 20260509023839 | 8 | 29 | 0.0 | 0.0 | 0.00 | 0.00 | 0.00 | 48 | 1005.9 |
| 20260509023336 | 8 | 29 | 0.0 | 0.0 | 0.00 | 0.00 | 0.00 | 47 | 1006.0 |
| 20260509022832 | 8 | 29 | 0.0 | 0.0 | 0.00 | 0.00 | 0.00 | 48 | 1006.0 |
| 20260509022330 | 8 | 33 | 0.0 | 0.0 | 0.00 | 0.00 | 0.00 | 47 | 1005.9 |
| 20260509021826 | 8 | 29 | 0.0 | 0.0 | 0.00 | 0.00 | 0.00 | 46 | 1005.6 |
| 20260509021324 | 9 | 29 | 0.0 | 0.0 | 0.00 | 0.00 | 0.00 | 43 | 1005.9 |
| 20260509020821 | 9 | 29 | 0.0 | 0.0 | 0.00 | 0.00 | 0.00 | 42 | 1005.6 |
| 20260509020319 | 10 | 29 | 0.0 | 0.0 | 0.00 | 0.00 | 0.00 | 43 | 1006.0 |
| 20260509015817 | 10 | 29 | 0.0 | 0.0 | 0.00 | 0.00 | 0.00 | 44 | 1005.7 |
| 20260509015315 | 10 | 30 | 0.0 | 0.0 | 0.00 | 0.00 | 0.00 | 44 | 1005.5 |
| 20260509014811 | 10 | 20 | 0.0 | 0.0 | 0.00 | 0.00 | 0.00 | 42 | 1005.7 |
| 20260509014308 | 10 | 30 | 0.0 | 0.0 | 0.00 | 0.00 | 0.00 | 38 | 1005.3 |
| 20260509013805 | 11 | 30 | 0.0 | 0.0 | 0.00 | 0.00 | 0.00 | 37 | 1005.4 |
| 20260509013301 | 11 | 29 | 0.0 | 0.0 | 0.00 | 0.00 | 0.00 | 35 | 1005.7 |
| 20260509012757 | 11 | 29 | 0.0 | 0.0 | 0.00 | 0.00 | 0.00 | 35 | 1005.5 |
| 20260509012254 | 12 | 22 | 0.0 | 0.0 | 0.00 | 0.00 | 0.00 | 33 | 1005.3 |
| 20260509011751 | 13 | 17 | 0.0 | 0.0 | 0.00 | 0.00 | 0.00 | 31 | 1005.6 |
| 20260509011248 | 13 | 16 | 0.0 | 0.0 | 0.00 | 0.00 | 0.00 | 30 | 1005.5 |
| 20260509010746 | 13 | 12 | 0.0 | 0.0 | 0.00 | 0.00 | 0.00 | 29 | 1005.5 |
| 20260509010243 | 13 | 10 | 0.0 | 0.0 | 0.00 | 0.00 | 0.00 | 28 | 1005.5 |
| 20260509005741 | 13 | 41 | 0.0 | 0.0 | 0.00 | 0.00 | 0.00 | 27 | 1005.4 |
| 20260509005238 | 14 | 11 | 0.0 | 0.0 | 0.00 | 0.00 | 0.00 | 27 | 1005.4 |
| 20260509004737 | 14 | 12 | 0.0 | 0.0 | 0.00 | 0.00 | 0.00 | 26 | 1005.4 |
| 20260509004235 | 14 | 13 | 3.2 | 3.2 | 0.00 | 0.00 | 0.00 | 26 | 1005.2 |
| 20260509003733 | 15 | 58 | 1.6 | 1.6 | 0.00 | 0.00 | 0.00 | 26 | 1005.3 |
| 20260509003230 | 15 | 34 | 0.0 | 1.6 | 0.00 | 0.00 | 0.00 | 26 | 1005.3 |
| 20260509002727 | 15 | 3 | 1.6 | 3.2 | 0.00 | 0.00 | 0.00 | 25 | 1005.3 |
| 20260509002225 | 15 | 20 | 1.6 | 3.2 | 0.00 | 0.00 | 0.00 | 26 | 1005.2 |
| 20260509001723 | 15 | 5 | 1.6 | 3.2 | 0.00 | 0.00 | 0.00 | 25 | 1005.1 |
| 20260509001218 | 16 | 18 | 1.6 | 3.2 | 0.00 | 0.00 | 0.00 | 25 | 1005.2 |
| 20260509000717 | 16 | 38 | 3.2 | 3.2 | 0.00 | 0.00 | 0.00 | 24 | 1005.2 |
| 20260509000213 | 16 | 108 | 1.6 | 3.2 | 0.00 | 0.00 | 0.00 | 24 | 1005.1 |
| 20260508235710 | 16 | 338 | 1.6 | 3.2 | 0.00 | 0.00 | 0.00 | 25 | 1005.2 |
| 20260508235207 | 16 | 331 | 3.2 | 4.8 | 0.00 | 0.00 | 0.00 | 23 | 1005.2 |
| 20260508234704 | 16 | 359 | 3.2 | 3.2 | 0.00 | 0.00 | 0.00 | 24 | 1005.2 |
| 20260508234200 | 16 | 275 | 4.8 | 4.8 | 0.00 | 0.00 | 0.00 | 24 | 1005.1 |
| 20260508233700 | 16 | 6 | 3.2 | 4.8 | 0.00 | 0.00 | 0.00 | 24 | 1005.3 |
| 20260508233157 | 17 | 25 | 3.2 | 4.8 | 0.00 | 0.00 | 0.00 | 23 | 1005.1 |
| 20260508232655 | 17 | 11 | 4.8 | 4.8 | 0.00 | 0.00 | 0.00 | 23 | 1005.0 |
| 20260508232151 | 17 | 206 | 3.2 | 4.8 | 0.00 | 0.00 | 0.00 | 24 | 1004.9 |
| 20260508231649 | 17 | 358 | 0.0 | 1.6 | 0.00 | 0.00 | 0.00 | 23 | 1005.0 |
| 20260508231145 | 17 | 23 | 4.8 | 4.8 | 0.00 | 0.00 | 0.00 | 23 | 1004.9 |
| 20260508230642 | 17 | 322 | 1.6 | 4.8 | 0.00 | 0.00 | 0.00 | 22 | 1004.8 |
| 20260508230138 | 17 | 18 | 8.0 | 11.3 | 0.00 | 0.00 | 0.00 | 23 | 1004.8 |
| 20260508225637 | 17 | 47 | 4.8 | 4.8 | 0.00 | 0.00 | 0.00 | 24 | 1005.0 |
| 20260508225132 | 17 | 31 | 3.2 | 3.2 | 0.00 | 0.00 | 0.00 | 24 | 1004.7 |
| 20260508224630 | 18 | 332 | 1.6 | 1.6 | 0.00 | 0.00 | 0.00 | 23 | 1004.8 |
| 20260508224128 | 18 | 13 | 3.2 | 3.2 | 0.00 | 0.00 | 0.00 | 24 | 1004.9 |
| 20260508223626 | 18 | 345 | 4.8 | 4.8 | 0.00 | 0.00 | 0.00 | 23 | 1004.8 |
| 20260508223122 | 18 | 22 | 4.8 | 4.8 | 0.00 | 0.00 | 0.00 | 24 | 1004.7 |
| 20260508222620 | 18 | 338 | 1.6 | 1.6 | 0.00 | 0.00 | 0.00 | 25 | 1004.7 |
| 20260508222117 | 19 | 332 | 1.6 | 1.6 | 0.00 | 0.00 | 0.00 | 21 | 1004.8 |
| 20260508221613 | 19 | 55 | 3.2 | 4.8 | 0.00 | 0.00 | 0.00 | 23 | 1004.8 |
| 20260508221109 | 18 | 35 | 0.0 | 1.6 | 0.00 | 0.00 | 0.00 | 24 | 1005.0 |
| 20260508220606 | 18 | 248 | 1.6 | 1.6 | 0.00 | 0.00 | 0.00 | 24 | 1004.9 |
| 20260508215559 | 19 | 4 | 1.6 | 3.2 | 0.00 | 0.00 | 0.00 | 23 | 1004.9 |
| 20260508215055 | 18 | 291 | 1.6 | 1.6 | 0.00 | 0.00 | 0.00 | 26 | 1005.0 |
| 20260508214553 | 19 | 199 | 3.2 | 8.0 | 0.00 | 0.00 | 0.00 | 24 | 1004.9 |
| 20260508214049 | 19 | 297 | 1.6 | 4.8 | 0.00 | 0.00 | 0.00 | 26 | 1004.9 |
| 20260508213547 | 19 | 196 | 6.4 | 8.0 | 0.00 | 0.00 | 0.00 | 24 | 1005.0 |
| 20260508213042 | 18 | 61 | 4.8 | 8.0 | 0.00 | 0.00 | 0.00 | 26 | 1004.9 |
| 20260508212539 | 18 | 304 | 1.6 | 3.2 | 0.00 | 0.00 | 0.00 | 29 | 1004.9 |
| 20260508212035 | 18 | 151 | 3.2 | 4.8 | 0.00 | 0.00 | 0.00 | 29 | 1005.1 |
| 20260508211531 | 19 | 15 | 4.8 | 4.8 | 0.00 | 0.00 | 0.00 | 28 | 1005.0 |
| 20260508211027 | 19 | 225 | 0.0 | 1.6 | 0.00 | 0.00 | 0.00 | 28 | 1004.9 |
| 20260508210524 | 19 | 39 | 3.2 | 3.2 | 0.00 | 0.00 | 0.00 | 28 | 1004.9 |
| 20260508210022 | 20 | 2 | 4.8 | 4.8 | 0.00 | 0.00 | 0.00 | 28 | 1005.2 |
| 20260508205519 | 19 | 337 | 1.6 | 1.6 | 0.00 | 0.00 | 0.00 | 29 | 1005.1 |
| 20260508205015 | 19 | 9 | 1.6 | 1.6 | 0.00 | 0.00 | 0.00 | 26 | 1005.2 |
| 20260508204512 | 18 | 328 | 1.6 | 3.2 | 0.00 | 0.00 | 0.00 | 27 | 1005.2 |
| 20260508204007 | 18 | 45 | 6.4 | 11.3 | 0.00 | 0.00 | 0.00 | 27 | 1005.4 |
| 20260508203504 | 19 | 43 | 1.6 | 3.2 | 0.00 | 0.00 | 0.00 | 29 | 1005.3 |
| 20260508202959 | 18 | 91 | 1.6 | 1.6 | 0.00 | 0.00 | 0.00 | 30 | 1005.5 |
| 20260508202457 | 18 | 38 | 6.4 | 8.0 | 0.00 | 0.00 | 0.00 | 28 | 1005.5 |
| 20260508201954 | 19 | 141 | 3.2 | 3.2 | 0.00 | 0.00 | 0.00 | 26 | 1005.5 |
| 20260508201451 | 19 | 347 | 1.6 | 1.6 | 0.00 | 0.00 | 0.00 | 31 | 1005.6 |
| 20260508200947 | 19 | 311 | 1.6 | 3.2 | 0.00 | 0.00 | 0.00 | 28 | 1005.7 |
| 20260508200445 | 19 | 33 | 0.0 | 1.6 | 0.00 | 0.00 | 0.00 | 27 | 1006.0 |
| 20260508195944 | 18 | 118 | 3.2 | 4.8 | 0.00 | 0.00 | 0.00 | 32 | 1006.0 |
| 20260508195443 | 18 | 306 | 3.2 | 4.8 | 0.00 | 0.00 | 0.00 | 31 | 1006.2 |
| 20260508194938 | 18 | 297 | 1.6 | 1.6 | 0.00 | 0.00 | 0.00 | 29 | 1006.3 |
| 20260508194436 | 17 | 11 | 1.6 | 3.2 | 0.00 | 0.00 | 0.00 | 30 | 1006.4 |
| 20260508193933 | 18 | 175 | 4.8 | 4.8 | 0.00 | 0.00 | 0.00 | 28 | 1006.3 |
| 20260508193430 | 18 | 81 | 1.6 | 1.6 | 0.00 | 0.00 | 0.00 | 30 | 1006.5 |
| 20260508192926 | 18 | 181 | 4.8 | 8.0 | 0.00 | 0.00 | 0.00 | 31 | 1006.5 |
| 20260508192423 | 17 | 29 | 0.0 | 0.0 | 0.00 | 0.00 | 0.00 | 34 | 1006.6 |
| 20260508191920 | 18 | 6 | 4.8 | 4.8 | 0.00 | 0.00 | 0.00 | 31 | 1006.8 |
| 20260508191417 | 18 | 34 | 3.2 | 3.2 | 0.00 | 0.00 | 0.00 | 31 | 1006.8 |
| 20260508190914 | 18 | 351 | 0.0 | 1.6 | 0.00 | 0.00 | 0.00 | 33 | 1007.2 |
| 20260508190411 | 17 | 329 | 0.0 | 1.6 | 0.00 | 0.00 | 0.00 | 33 | 1007.0 |
| 20260508185907 | 17 | 164 | 4.8 | 4.8 | 0.00 | 0.00 | 0.00 | 32 | 1006.8 |
| 20260508185405 | 17 | 167 | 0.0 | 1.6 | 0.00 | 0.00 | 0.00 | 32 | 1007.1 |
| 20260508184902 | 17 | 68 | 3.2 | 3.2 | 0.00 | 0.00 | 0.00 | 31 | 1006.9 |
| 20260508184359 | 17 | 356 | 4.8 | 8.0 | 0.00 | 0.00 | 0.00 | 32 | 1007.2 |
| 20260508183855 | 17 | 294 | 4.8 | 8.0 | 0.00 | 0.00 | 0.00 | 31 | 1007.2 |
| 20260508183352 | 18 | 359 | 3.2 | 3.2 | 0.00 | 0.00 | 0.00 | 34 | 1007.4 |
| 20260508182848 | 17 | 344 | 0.0 | 1.6 | 0.00 | 0.00 | 0.00 | 33 | 1007.4 |
| 20260508182345 | 17 | 32 | 3.2 | 3.2 | 0.00 | 0.00 | 0.00 | 32 | 1007.3 |
| 20260508181840 | 17 | 183 | 1.6 | 1.6 | 0.00 | 0.00 | 0.00 | 33 | 1007.5 |
| 20260508181337 | 17 | 351 | 0.0 | 1.6 | 0.00 | 0.00 | 0.00 | 34 | 1007.6 |
| 20260508180834 | 17 | 166 | 1.6 | 4.8 | 0.00 | 0.00 | 0.00 | 31 | 1007.8 |
| 20260508180331 | 17 | 117 | 1.6 | 1.6 | 0.00 | 0.00 | 0.00 | 35 | 1007.8 |
| 20260508175827 | 17 | 173 | 1.6 | 1.6 | 0.00 | 0.00 | 0.00 | 33 | 1007.9 |
| 20260508175324 | 17 | 306 | 0.0 | 0.0 | 0.00 | 0.00 | 0.00 | 35 | 1007.8 |
| 20260508174823 | 16 | 8 | 4.8 | 4.8 | 0.00 | 0.00 | 0.00 | 35 | 1007.8 |
| 20260508174319 | 17 | 316 | 1.6 | 1.6 | 0.00 | 0.00 | 0.00 | 32 | 1008.0 |
| 20260508173815 | 16 | 288 | 1.6 | 3.2 | 0.00 | 0.00 | 0.00 | 35 | 1008.1 |
| 20260508173313 | 16 | 260 | 3.2 | 4.8 | 0.00 | 0.00 | 0.00 | 34 | 1008.2 |
| 20260508172809 | 16 | 38 | 3.2 | 3.2 | 0.00 | 0.00 | 0.00 | 32 | 1008.3 |
| 20260508172307 | 16 | 4 | 4.8 | 4.8 | 0.00 | 0.00 | 0.00 | 33 | 1008.6 |
| 20260508171802 | 16 | 356 | 11.3 | 14.5 | 0.00 | 0.00 | 0.00 | 33 | 1008.6 |
| 20260508171258 | 16 | 308 | 4.8 | 4.8 | 0.00 | 0.00 | 0.00 | 33 | 1008.4 |
| 20260508170755 | 16 | 18 | 4.8 | 4.8 | 0.00 | 0.00 | 0.00 | 34 | 1008.5 |
| 20260508170253 | 16 | 332 | 3.2 | 4.8 | 0.00 | 0.00 | 0.00 | 32 | 1008.7 |
| 20260508165750 | 16 | 1 | 4.8 | 8.0 | 0.00 | 0.00 | 0.00 | 31 | 1009.1 |
| 20260508165247 | 16 | 183 | 0.0 | 1.6 | 0.00 | 0.00 | 0.00 | 33 | 1008.9 |
| 20260508164743 | 16 | 148 | 9.7 | 11.3 | 0.00 | 0.00 | 0.00 | 34 | 1008.8 |
| 20260508164240 | 16 | 332 | 0.0 | 1.6 | 0.00 | 0.00 | 0.00 | 34 | 1008.9 |
| 20260508163738 | 15 | 5 | 0.0 | 0.0 | 0.00 | 0.00 | 0.00 | 34 | 1008.9 |
| 20260508163236 | 16 | 9 | 4.8 | 4.8 | 0.00 | 0.00 | 0.00 | 32 | 1009.1 |
| 20260508162731 | 16 | 150 | 3.2 | 3.2 | 0.00 | 0.00 | 0.00 | 37 | 1009.0 |
| 20260508162228 | 16 | 90 | 0.0 | 0.0 | 0.00 | 0.00 | 0.00 | 33 | 1008.9 |
| 20260508161725 | 15 | 8 | 0.0 | 0.0 | 0.00 | 0.00 | 0.00 | 35 | 1008.9 |
| 20260508161222 | 15 | 248 | 3.2 | 4.8 | 0.00 | 0.00 | 0.00 | 32 | 1009.0 |
| 20260508160720 | 15 | 348 | 1.6 | 1.6 | 0.00 | 0.00 | 0.00 | 38 | 1009.2 |
| 20260508160218 | 16 | 357 | 0.0 | 0.0 | 0.00 | 0.00 | 0.00 | 35 | 1009.3 |
| 20260508155715 | 16 | 68 | 1.6 | 1.6 | 0.00 | 0.00 | 0.00 | 35 | 1009.1 |
| 20260508155212 | 15 | 101 | 1.6 | 3.2 | 0.00 | 0.00 | 0.00 | 37 | 1009.1 |
| 20260508154709 | 15 | 3 | 6.4 | 8.0 | 0.00 | 0.00 | 0.00 | 35 | 1009.2 |
| 20260508154206 | 16 | 349 | 0.0 | 0.0 | 0.00 | 0.00 | 0.00 | 39 | 1009.5 |
| 20260508153702 | 15 | 351 | 0.0 | 0.0 | 0.00 | 0.00 | 0.00 | 35 | 1009.5 |
| 20260508153159 | 15 | 198 | 3.2 | 4.8 | 0.00 | 0.00 | 0.00 | 38 | 1009.5 |
| 20260508152656 | 15 | 171 | 3.2 | 3.2 | 0.00 | 0.00 | 0.00 | 39 | 1009.5 |
| 20260508152152 | 15 | 49 | 1.6 | 1.6 | 0.00 | 0.00 | 0.00 | 41 | 1009.6 |
| 20260508151648 | 15 | 189 | 3.2 | 4.8 | 0.00 | 0.00 | 0.00 | 41 | 1009.6 |
| 20260508151145 | 15 | 304 | 1.6 | 3.2 | 0.00 | 0.00 | 0.00 | 43 | 1009.5 |
| 20260508150642 | 14 | 184 | 0.0 | 0.0 | 0.00 | 0.00 | 0.00 | 41 | 1009.7 |
| 20260508150139 | 14 | 304 | 0.0 | 1.6 | 0.00 | 0.00 | 0.00 | 43 | 1009.7 |
| 20260508145634 | 13 | 341 | 0.0 | 1.6 | 0.00 | 0.00 | 0.00 | 47 | 1009.7 |
| 20260508145131 | 14 | 162 | 4.8 | 4.8 | 0.00 | 0.00 | 0.00 | 43 | 1009.9 |
| 20260508144629 | 13 | 21 | 0.0 | 0.0 | 0.00 | 0.00 | 0.00 | 46 | 1009.9 |
| 20260508144126 | 14 | 318 | 4.8 | 8.0 | 0.00 | 0.00 | 0.00 | 44 | 1009.9 |
| 20260508143624 | 15 | 79 | 0.0 | 0.0 | 0.00 | 0.00 | 0.00 | 41 | 1010.1 |
| 20260508143120 | 14 | 341 | 3.2 | 3.2 | 0.00 | 0.00 | 0.00 | 43 | 1010.0 |
| 20260508142617 | 14 | 171 | 1.6 | 1.6 | 0.00 | 0.00 | 0.00 | 45 | 1010.1 |
| 20260508142113 | 13 | 53 | 0.0 | 0.0 | 0.00 | 0.00 | 0.00 | 50 | 1010.1 |
| 20260508141610 | 13 | 176 | 3.2 | 3.2 | 0.00 | 0.00 | 0.00 | 50 | 1010.2 |
| 20260508141108 | 13 | 19 | 0.0 | 1.6 | 0.00 | 0.00 | 0.00 | 47 | 1010.1 |
| 20260508140605 | 13 | 241 | 0.0 | 0.0 | 0.00 | 0.00 | 0.00 | 50 | 1010.1 |
| 20260508135556 | 13 | 140 | 3.2 | 3.2 | 0.00 | 0.00 | 0.00 | 53 | 1010.4 |
| 20260508135053 | 12 | 46 | 0.0 | 0.0 | 0.00 | 0.00 | 0.00 | 57 | 1010.4 |
| 20260508134550 | 12 | 335 | 0.0 | 0.0 | 0.00 | 0.00 | 0.00 | 57 | 1010.3 |
| 20260508134047 | 11 | 39 | 0.0 | 0.0 | 0.00 | 0.00 | 0.00 | 58 | 1010.3 |
| 20260508133543 | 12 | 141 | 1.6 | 3.2 | 0.00 | 0.00 | 0.00 | 60 | 1010.5 |
| 20260508133041 | 11 | 96 | 0.0 | 0.0 | 0.00 | 0.00 | 0.00 | 61 | 1010.4 |
| 20260508132539 | 11 | 141 | 3.2 | 4.8 | 0.00 | 0.00 | 0.00 | 60 | 1010.3 |
| 20260508132035 | 11 | 42 | 0.0 | 0.0 | 0.00 | 0.00 | 0.00 | 64 | 1010.4 |
| 20260508131530 | 11 | 45 | 0.0 | 0.0 | 0.00 | 0.00 | 0.00 | 65 | 1010.6 |
| 20260508131027 | 11 | 347 | 0.0 | 0.0 | 0.00 | 0.00 | 0.00 | 66 | 1010.6 |
| 20260508130525 | 10 | 142 | 1.6 | 1.6 | 0.00 | 0.00 | 0.00 | 69 | 1010.7 |
| 20260508130021 | 10 | 184 | 3.2 | 3.2 | 0.00 | 0.00 | 0.00 | 67 | 1010.6 |
| 20260508125517 | 10 | 44 | 0.0 | 0.0 | 0.00 | 0.00 | 0.00 | 69 | 1010.6 |
| 20260508125015 | 11 | 78 | 0.0 | 1.6 | 0.00 | 0.00 | 0.00 | 70 | 1010.4 |
| 20260508124513 | 10 | 30 | 0.0 | 0.0 | 0.00 | 0.00 | 0.00 | 72 | 1010.4 |
| 20260508124009 | 10 | 10 | 0.0 | 0.0 | 0.00 | 0.00 | 0.00 | 73 | 1010.3 |
| 20260508123508 | 10 | 71 | 0.0 | 0.0 | 0.00 | 0.00 | 0.00 | 72 | 1010.4 |
| 20260508123004 | 10 | 51 | 0.0 | 0.0 | 0.00 | 0.00 | 0.00 | 74 | 1010.3 |
| 20260508122501 | 8 | 49 | 0.0 | 0.0 | 0.00 | 0.00 | 0.00 | 76 | 1010.4 |
| 20260508121958 | 8 | 26 | 0.0 | 0.0 | 0.00 | 0.00 | 0.00 | 77 | 1010.4 |
| 20260508121456 | 7 | 13 | 0.0 | 0.0 | 0.00 | 0.00 | 0.00 | 80 | 1010.3 |
| 20260508120954 | 7 | 88 | 0.0 | 0.0 | 0.00 | 0.00 | 0.00 | 82 | 1010.0 |
| 20260508120451 | 7 | 61 | 0.0 | 0.0 | 0.00 | 0.00 | 0.00 | 83 | 1010.2 |
| 20260508115949 | 6 | 45 | 0.0 | 0.0 | 0.00 | 0.00 | 0.00 | 83 | 1010.1 |
| 20260508115447 | 6 | 36 | 0.0 | 0.0 | 0.00 | 0.00 | 0.00 | 85 | 1010.2 |
| 20260508114943 | 5 | 45 | 0.0 | 0.0 | 0.00 | 0.00 | 0.00 | 87 | 1010.2 |
| 20260508114440 | 4 | 26 | 0.0 | 0.0 | 0.00 | 0.00 | 0.00 | 89 | 1009.9 |
| 20260508113937 | 3 | 22 | 0.0 | 0.0 | 0.00 | 0.00 | 0.00 | 90 | 1010.0 |
| 20260508113434 | 3 | 291 | 0.0 | 0.0 | 0.00 | 0.00 | 0.00 | 90 | 1009.9 |
| 20260508112931 | 2 | 25 | 0.0 | 0.0 | 0.00 | 0.00 | 0.00 | 92 | 1009.9 |
| 20260508112428 | 2 | 17 | 0.0 | 0.0 | 0.00 | 0.00 | 0.00 | 93 | 1009.7 |
| 20260508111925 | 2 | 17 | 0.0 | 0.0 | 0.00 | 0.00 | 0.00 | 94 | 1009.5 |
| 20260508111422 | 1 | 15 | 0.0 | 0.0 | 0.00 | 0.00 | 0.00 | 95 | 1009.6 |
| 20260508110919 | 1 | 20 | 0.0 | 0.0 | 0.00 | 0.00 | 0.00 | 95 | 1009.5 |
| 20260508110417 | 1 | 17 | 0.0 | 0.0 | 0.00 | 0.00 | 0.00 | 96 | 1009.5 |
| 20260508105916 | 1 | 16 | 0.0 | 0.0 | 0.00 | 0.00 | 0.00 | 96 | 1009.5 |
| 20260508105413 | 1 | 17 | 0.0 | 0.0 | 0.00 | 0.00 | 0.00 | 96 | 1009.6 |
| 20260508104910 | 1 | 17 | 0.0 | 0.0 | 0.00 | 0.00 | 0.00 | 96 | 1009.4 |
| 20260508104407 | 1 | 16 | 0.0 | 0.0 | 0.00 | 0.00 | 0.00 | 96 | 1009.3 |
| 20260508103904 | 1 | 16 | 0.0 | 0.0 | 0.00 | 0.00 | 0.00 | 96 | 1009.4 |
| 20260508103401 | 1 | 16 | 0.0 | 0.0 | 0.00 | 0.00 | 0.00 | 96 | 1009.4 |
| 20260508102858 | 1 | 18 | 0.0 | 0.0 | 0.00 | 0.00 | 0.00 | 96 | 1009.3 |
| 20260508102356 | 1 | 16 | 0.0 | 0.0 | 0.00 | 0.00 | 0.00 | 95 | 1009.1 |
| 20260508101854 | 1 | 17 | 0.0 | 0.0 | 0.00 | 0.00 | 0.00 | 95 | 1009.4 |
| 20260508101350 | 1 | 16 | 0.0 | 0.0 | 0.00 | 0.00 | 0.00 | 95 | 1009.3 |
| 20260508100848 | 1 | 16 | 0.0 | 0.0 | 0.00 | 0.00 | 0.00 | 95 | 1009.4 |
| 20260508100347 | 1 | 18 | 0.0 | 0.0 | 0.00 | 0.00 | 0.00 | 94 | 1009.3 |
| 20260508095842 | 1 | 13 | 0.0 | 0.0 | 0.00 | 0.00 | 0.00 | 94 | 1009.3 |
| 20260508095340 | 1 | 16 | 0.0 | 0.0 | 0.00 | 0.00 | 0.00 | 94 | 1009.5 |
| 20260508094836 | 1 | 16 | 0.0 | 0.0 | 0.00 | 0.00 | 0.00 | 93 | 1009.5 |
| 20260508094333 | 1 | 16 | 0.0 | 0.0 | 0.00 | 0.00 | 0.00 | 92 | 1009.3 |
| 20260508093831 | 2 | 17 | 0.0 | 0.0 | 0.00 | 0.00 | 0.00 | 92 | 1009.5 |
| 20260508093328 | 2 | 22 | 0.0 | 0.0 | 0.00 | 0.00 | 0.00 | 92 | 1009.4 |
| 20260508092825 | 2 | 12 | 0.0 | 0.0 | 0.00 | 0.00 | 0.00 | 92 | 1009.4 |
| 20260508092323 | 2 | 12 | 0.0 | 0.0 | 0.00 | 0.00 | 0.00 | 92 | 1009.5 |
| 20260508091821 | 2 | 17 | 0.0 | 0.0 | 0.00 | 0.00 | 0.00 | 92 | 1009.5 |
| 20260508091317 | 2 | 17 | 0.0 | 0.0 | 0.00 | 0.00 | 0.00 | 91 | 1009.2 |
| 20260508090815 | 2 | 15 | 0.0 | 0.0 | 0.00 | 0.00 | 0.00 | 90 | 1009.4 |
| 20260508090314 | 2 | 15 | 0.0 | 0.0 | 0.00 | 0.00 | 0.00 | 90 | 1009.3 |
| 20260508085809 | 2 | 12 | 0.0 | 0.0 | 0.00 | 0.00 | 0.00 | 89 | 1009.4 |
| 20260508085307 | 2 | 18 | 0.0 | 0.0 | 0.00 | 0.00 | 0.00 | 89 | 1009.3 |
| 20260508084802 | 2 | 14 | 0.0 | 0.0 | 0.00 | 0.00 | 0.00 | 89 | 1009.4 |
| 20260508084259 | 2 | 17 | 0.0 | 0.0 | 0.00 | 0.00 | 0.00 | 89 | 1009.5 |
| 20260508083757 | 2 | 24 | 0.0 | 0.0 | 0.00 | 0.00 | 0.00 | 88 | 1009.4 |
| 20260508083254 | 3 | 22 | 0.0 | 0.0 | 0.00 | 0.00 | 0.00 | 87 | 1009.6 |
| 20260508082754 | 3 | 17 | 0.0 | 0.0 | 0.00 | 0.00 | 0.00 | 87 | 1009.5 |
| 20260508082252 | 3 | 17 | 0.0 | 0.0 | 0.00 | 0.00 | 0.00 | 86 | 1009.6 |
| 20260508081749 | 3 | 17 | 0.0 | 0.0 | 0.00 | 0.00 | 0.00 | 85 | 1009.5 |
| 20260508081245 | 3 | 22 | 0.0 | 0.0 | 0.00 | 0.00 | 0.00 | 84 | 1009.5 |
| 20260508080742 | 3 | 11 | 0.0 | 0.0 | 0.00 | 0.00 | 0.00 | 84 | 1009.7 |
| 20260508080241 | 3 | 12 | 0.0 | 0.0 | 0.00 | 0.00 | 0.00 | 84 | 1009.5 |
| 20260508075737 | 3 | 15 | 0.0 | 0.0 | 0.00 | 0.00 | 0.00 | 83 | 1009.7 |
| 20260508075234 | 4 | 22 | 0.0 | 0.0 | 0.00 | 0.00 | 0.00 | 82 | 1009.4 |
| 20260508074732 | 4 | 17 | 0.0 | 0.0 | 0.00 | 0.00 | 0.00 | 83 | 1009.7 |
| 20260508074229 | 4 | 28 | 0.0 | 0.0 | 0.00 | 0.00 | 0.00 | 81 | 1009.9 |
| 20260508073725 | 4 | 17 | 0.0 | 0.0 | 0.00 | 0.00 | 0.00 | 81 | 1009.9 |
| 20260508073224 | 5 | 18 | 0.0 | 0.0 | 0.00 | 0.00 | 0.00 | 80 | 1009.6 |
| 20260508072719 | 5 | 8 | 0.0 | 0.0 | 0.00 | 0.00 | 0.00 | 80 | 1009.7 |
| 20260508072216 | 4 | 5 | 0.0 | 0.0 | 0.00 | 0.00 | 0.00 | 80 | 1009.6 |
| 20260508071714 | 4 | 7 | 0.0 | 0.0 | 0.00 | 0.00 | 0.00 | 80 | 1009.6 |
| 20260508071212 | 4 | 15 | 0.0 | 0.0 | 0.00 | 0.00 | 0.00 | 78 | 1009.9 |
| 20260508070709 | 4 | 9 | 0.0 | 0.0 | 0.00 | 0.00 | 0.00 | 78 | 1010.0 |
| 20260508070208 | 5 | 19 | 0.0 | 0.0 | 0.00 | 0.00 | 0.00 | 77 | 1010.0 |
| 20260508065704 | 5 | 10 | 0.0 | 0.0 | 0.00 | 0.00 | 0.00 | 75 | 1010.0 |
| 20260508065202 | 5 | 17 | 0.0 | 0.0 | 0.00 | 0.00 | 0.00 | 75 | 1009.9 |
| 20260508064700 | 5 | 18 | 0.0 | 0.0 | 0.00 | 0.00 | 0.00 | 74 | 1010.0 |
| 20260508064158 | 5 | 18 | 0.0 | 0.0 | 0.00 | 0.00 | 0.00 | 75 | 1010.0 |
| 20260508063655 | 5 | 40 | 0.0 | 0.0 | 0.00 | 0.00 | 0.00 | 74 | 1010.1 |
| 20260508063153 | 5 | 14 | 0.0 | 0.0 | 0.00 | 0.00 | 0.00 | 72 | 1010.2 |
| 20260508062650 | 6 | 17 | 0.0 | 0.0 | 0.00 | 0.00 | 0.00 | 73 | 1010.5 |
| 20260508062147 | 6 | 9 | 0.0 | 0.0 | 0.00 | 0.00 | 0.00 | 73 | 1010.3 |
| 20260508061644 | 6 | 15 | 0.0 | 0.0 | 0.00 | 0.00 | 0.00 | 73 | 1010.2 |
| 20260508061141 | 6 | 21 | 0.0 | 0.0 | 0.00 | 0.00 | 0.00 | 72 | 1010.2 |
| 20260508060638 | 6 | 14 | 0.0 | 0.0 | 0.00 | 0.00 | 0.00 | 71 | 1010.0 |
| 20260508060135 | 6 | 12 | 0.0 | 0.0 | 0.00 | 0.00 | 0.00 | 71 | 1010.3 |
| 20260508055630 | 7 | 18 | 0.0 | 0.0 | 0.00 | 0.00 | 0.00 | 70 | 1010.2 |
| 20260508055128 | 7 | 11 | 0.0 | 0.0 | 0.00 | 0.00 | 0.00 | 70 | 1010.4 |
| 20260508054624 | 7 | 10 | 0.0 | 0.0 | 0.00 | 0.00 | 0.00 | 70 | 1010.2 |
| 20260508054122 | 7 | 8 | 0.0 | 0.0 | 0.00 | 0.00 | 0.00 | 69 | 1010.3 |
| 20260508053618 | 7 | 10 | 0.0 | 0.0 | 0.00 | 0.00 | 0.00 | 68 | 1010.4 |
| 20260508053116 | 7 | 11 | 0.0 | 0.0 | 0.00 | 0.00 | 0.00 | 67 | 1010.3 |
| 20260508052614 | 7 | 11 | 0.0 | 0.0 | 0.00 | 0.00 | 0.00 | 68 | 1010.2 |
| 20260508052111 | 7 | 11 | 0.0 | 0.0 | 0.00 | 0.00 | 0.00 | 69 | 1010.3 |
| 20260508051607 | 7 | 29 | 0.0 | 0.0 | 0.00 | 0.00 | 0.00 | 69 | 1010.2 |
| 20260508051102 | 8 | 8 | 0.0 | 0.0 | 0.00 | 0.00 | 0.00 | 67 | 1010.3 |
| 20260508050558 | 8 | 10 | 0.0 | 0.0 | 0.00 | 0.00 | 0.00 | 68 | 1010.1 |
| 20260508050056 | 7 | 17 | 0.0 | 0.0 | 0.00 | 0.00 | 0.00 | 69 | 1010.3 |
| 20260508045552 | 7 | 13 | 0.0 | 0.0 | 0.00 | 0.00 | 0.00 | 76 | 1010.3 |
| 20260508045050 | 7 | 10 | 1.6 | 1.6 | 0.00 | 0.00 | 0.00 | 78 | 1010.0 |
| 20260508044547 | 7 | 15 | 0.0 | 0.0 | 0.00 | 0.00 | 0.00 | 78 | 1010.1 |
| 20260508044043 | 7 | 8 | 0.0 | 0.0 | 0.00 | 0.00 | 0.00 | 75 | 1010.1 |
| 20260508043539 | 7 | 5 | 0.0 | 0.0 | 0.00 | 0.00 | 0.00 | 76 | 1010.1 |
| 20260508043037 | 7 | 11 | 0.0 | 0.0 | 0.00 | 0.00 | 0.00 | 76 | 1010.0 |
| 20260508042533 | 7 | 11 | 0.0 | 0.0 | 0.00 | 0.00 | 0.00 | 75 | 1009.9 |
| 20260508042031 | 7 | 25 | 0.0 | 0.0 | 0.00 | 0.00 | 0.00 | 74 | 1009.9 |
| 20260508041527 | 8 | 6 | 0.0 | 0.0 | 0.00 | 0.00 | 0.00 | 72 | 1009.9 |
| 20260508041024 | 8 | 14 | 0.0 | 0.0 | 0.00 | 0.00 | 0.00 | 72 | 1009.6 |
| 20260508040521 | 8 | 17 | 0.0 | 0.0 | 0.00 | 0.00 | 0.00 | 71 | 1009.7 |
| 20260508040019 | 8 | 21 | 0.0 | 0.0 | 0.00 | 0.00 | 0.00 | 69 | 1010.1 |
| 20260508035515 | 8 | 8 | 0.0 | 0.0 | 0.00 | 0.00 | 0.00 | 70 | 1010.2 |
| 20260508035012 | 8 | 24 | 0.0 | 0.0 | 0.00 | 0.00 | 0.00 | 71 | 1010.0 |
| 20260508034510 | 8 | 13 | 0.0 | 0.0 | 0.00 | 0.00 | 0.00 | 69 | 1010.1 |
| 20260508034006 | 8 | 8 | 0.0 | 0.0 | 0.00 | 0.00 | 0.00 | 68 | 1010.0 |
| 20260508033504 | 8 | 356 | 0.0 | 0.0 | 0.00 | 0.00 | 0.00 | 68 | 1009.7 |
| 20260508033001 | 8 | 11 | 0.0 | 0.0 | 0.00 | 0.00 | 0.00 | 68 | 1010.0 |